Regional Weather Roundup
Issued by NWS

Home | Current Version | Previous Version | Text Only | Print | Product List | Glossary On
Versions: 1 2 3 4 5 6 7 8 9 10 11 12 13 14 15 16 17 18 19 20 21 22 23 24 25 26 27 28 29 30 31 32 33 34 35 36 37 38 39 40 41 42 43 44 45 46 47 48 49 50
000
ASUS43 KDTX 231910
RWRMI
MICHIGAN HOURLY REGIONAL WEATHER ROUNDUP
NATIONAL WEATHER SERVICE DETROIT/PONTIAC MI
300 PM EDT WED JUL 23 2014

NOTE: "FAIR" INDICATES FEW OR NO CLOUDS BELOW 12,000 FEET WITH NO
SIGNIFICANT WEATHER AND/OR OBSTRUCTION TO VISIBILITY.

MIZ047>049-052>055-059>063-066>070-074>076-081>083-232000-
SOUTHEAST LOWER MICHIGAN

CITY           SKY/WX    TMP DP  RH WIND       PRES   REMARKS
ADRIAN         CLOUDY    73  59  61 N13       30.07S
ALMA           CLOUDY    71  55  56 N10G17    30.10F
ANN ARBOR      CLOUDY    73  56  54 N14G20    30.06S
BAD AXE        CLOUDY    66  54  66 NE12G17   30.10S
DETROIT CITY   CLOUDY    73  55  53 N13       30.06S
DETROIT        CLOUDY    72  58  61 NW14      30.06R
FLINT          CLOUDY    73  55  53 NE14      30.09S
GROSSE ILE     CLOUDY    73  61  64 NE13      30.04S
HILLSDALE      PTSUNNY   73  59  61 N12G17    30.08S
HOWELL         CLOUDY    70  54  57 N9G16     30.09F

CITY           SKY/WX    TMP DP  RH WIND       PRES   REMARKS
JACKSON        CLOUDY    72  58  61 N9        30.08S
LAMBERTVILLE   CLOUDY    72  59  64 N8        30.06S
LANSING        CLOUDY    73  56  54 N8        30.09F
LAPEER         NOT AVBL
MASON          CLOUDY    70  56  62 N7        30.09S
MONROE         CLOUDY    73  61  64 NW8       30.04R
MT. CLEMENS    CLOUDY    68  56  66 N15       30.05S
PONTIAC        CLOUDY    70  54  56 N12G20    30.07F
PORT HOPE        N/A     65  55  70 N13       30.09R
PORT HURON     CLOUDY    63  57  82 N10G16    30.08S
TRI CITIES     CLOUDY    73  57  57 NW14      30.09S
YPSILANTI      CLOUDY    77  57  50 N14       30.06S
$$
MIZ043>046-050>051-056>058-064>065-071>073-077>080-232000-
SOUTHWEST LOWER MICHIGAN

CITY           SKY/WX    TMP DP  RH WIND       PRES   REMARKS
BATTLE CREEK   CLOUDY    73  56  54 N9        30.10S
BENTON HARBOR  CLOUDY    66  59  78 N8G18     30.12F
BIG RAPIDS     CLOUDY    68  54  61 N10G18    30.13S
COLDWATER      PTSUNNY   74  58  56 N10G16    30.08S
HOLLAND        PTSUNNY   73  61  65 NW12G20   30.11F
GRAND RAPIDS   PTSUNNY   74  56  53 NE13      30.10S
KALAMAZOO      PTSUNNY   73  55  53 N9        30.09F
MARSHALL       CLOUDY    71  57  62 N5        30.08F
MUSKEGON       PTSUNNY   75  55  49 N10       30.11F
$$
MIZ016>042-232000-
NORTHERN LOWER MICHIGAN

CITY           SKY/WX    TMP DP  RH WIND       PRES   REMARKS
ALPENA         MOSUNNY   69  51  52 N13       30.12S
BEAVER ISLAND  SUNNY     69  52  54 N7G16     30.17S
BELLAIRE       CLOUDY    66  53  63 N6        30.15F
CADILLAC       CLOUDY    60  53  77 N8        30.16S
CHARLEVOIX     MOSUNNY   64  55  70 N7        30.19F
FRANKFORT      PTCLDY    66  51  59 N7        30.18S
GAYLORD        CLOUDY    62  52  69 N7        30.15F
GRAYLING       CLOUDY    64  56  75 NW12      30.16S
HARBOR SPRINGS CLOUDY    67  52  59 CALM      30.15F
HOUGHTON LAKE  CLOUDY    65  55  70 N10       30.15R
MANISTEE       SUNNY     64  52  63 NW13G18   30.17F
OSCODA         PTSUNNY   72  51  48 N16G25    30.09R
PELLSTON       PTSUNNY   68  52  56 N10       30.16R
TRAVERSE CITY  PTSUNNY   65  50  58 N8        30.15F
$$
MIZ007>008-015-232000-
EASTERN UPPER MICHIGAN

CITY           SKY/WX    TMP DP  RH WIND       PRES   REMARKS
KINROSS        SUNNY     66  52  59 N14G20    30.15S
MACKINAC ISLAN SUNNY     68  52  55 N12       30.15S
NEWBERRY       SUNNY     66  49  54 N17G23    30.18S
S. S. MARIE    MOSUNNY   68  51  54 NW14      30.14S
$$
MIZ004>006-011>014-085-232000-
CENTRAL UPPER MICHIGAN

CITY           SKY/WX    TMP DP  RH WIND       PRES   REMARKS
MANISTIQUE     MOSUNNY   71  49  44 N14G23    30.18S
ESCANABA       PTSUNNY   70  46  43 N12G17    30.20S
MENOMINEE      MOSUNNY   68  52  56 E15       30.19S
SAWYER-GWINN   MOSUNNY   66  46  48 NE9G17    30.24S
$$
MIZ001>003-009>011-084-232000-
WESTERN UPPER MICHIGAN

CITY           SKY/WX    TMP DP  RH WIND       PRES   REMARKS
IRON MOUNTAIN  PTSUNNY   69  46  43 N12       30.21F
HOUGHTON       SUNNY     68  46  45 NW10      30.24S
COPPER HARBOR    N/A     61  54  77 N10       30.24R
$$

ABBREVIATIONS USED IN REMARKS
   TC - TEMPERATURE IN CELSIUS
  WCI - WIND CHILL INDEX
   HX - HEAT INDEX
  VSB - VISIBILITY



USA.gov is the U.S. government's official web portal to all federal, state and local government web resources and services.